Orbital Elements at Epoch 2459200.5 (2020-Dec-17.0) TDB
Reference: JPL 18 (heliocentric ecliptic J2000)
Element | Value | Uncertainty (1-sigma) | Units |
e | .1580253221320881 | 4.4101e-08 | |
a | 3.173052844658886 | 2.874e-08 | au |
q | 2.671630146739527 | 1.4065e-07 | au |
i | 2.56982157535851 | 5.7991e-06 | deg |
node | 127.3164993151606 | 0.0001082 | deg |
peri | 83.16342544674869 | 0.00010976 | deg |
M | 133.4871293274647 | 2.1406e-05 | deg |
tp | 2458434.989279431273 (2018-Nov-12.48927943) | 0.00011739 | TDB |
period | 2064.497609568723 5.65 | 2.8049e-05 7.679e-08 | d yr |
n | .1743765642214546 | 2.3691e-09 | deg/d |
Q | 3.674475542578245 | 3.3281e-08 | au |
|
| | Orbit Determination Parameters
Additional Information
|